Dades meteomassalio
Diari Summary for Juliol 9, 2017 Units:  Metric    English   Both
« Previous Day
Next Day »
Diari Semanal Mensual Anual Personalitzat
  Maxima: Minima: Mijana:
Temperatura: 31.4 °C 17.5 °C 24 °C
Rosada: 17.8 °C 14.2 °C 16.3 °C
Humitat: 92 % 36 % 65 %
Velocitat del vent: 33.3 km/h 0.0 km/h 7.6 km/h
Racha vent: 33.3 km/h - -
Vent:- - WNW
Pressio: 1014.1 hPa 1010.7 hPa -
Pluja: 0.0 mm    
Historical Graphs
 
 
Tabular Data for Juliol 9, 2017
Time Temperature Dew Point Pressure Wind Wind Speed Wind Gust Humidity Rainfall Rate (Hourly) solar Conditions
00:03 19.0 °C 17.3 °C 1012.8 hPa Calm     90 % 0.0 mm 0.0 W/m2 RA
00:08 18.9 °C 17.2 °C 1013.1 hPa Calm     90 % 0.0 mm 0.0 W/m2 CLR
00:09 18.9 °C 17.2 °C 1013.1 hPa Calm     90 % 0.0 mm 0.0 W/m2 CLR
00:14 18.8 °C 17.2 °C 1013.1 hPa Calm     90 % 0.0 mm 0.0 W/m2 CLR
00:19 18.7 °C 17.1 °C 1013.1 hPa Calm     90 % 0.0 mm 0.0 W/m2 CLR
00:24 18.6 °C 16.9 °C 1013.1 hPa Calm     90 % 0.0 mm 0.0 W/m2 CLR
00:29 18.6 °C 17.1 °C 1013.1 hPa Calm     91 % 0.0 mm 0.0 W/m2 CLR
00:34 18.6 °C 17.1 °C 1013.1 hPa Calm     91 % 0.0 mm 0.0 W/m2 CLR
00:39 18.5 °C 17.0 °C 1013.4 hPa Calm     91 % 0.0 mm 0.0 W/m2 CLR
00:45 18.5 °C 17.0 °C 1013.4 hPa Calm     91 % 0.0 mm 0.0 W/m2 CLR
00:50 18.4 °C 16.9 °C 1013.4 hPa Calm     91 % 0.0 mm 0.0 W/m2 CLR
00:55 18.4 °C 17.1 °C 1013.1 hPa Calm     92 % 0.0 mm 0.0 W/m2 CLR
01:00 18.3 °C 16.8 °C 1013.4 hPa Calm     91 % 0.0 mm 0.0 W/m2 CLR
01:05 18.2 °C 16.7 °C 1013.4 hPa Calm     91 % 0.0 mm 0.0 W/m2 CLR
01:10 18.1 °C 16.8 °C 1013.4 hPa Calm     92 % 0.0 mm 0.0 W/m2 CLR
01:15 18.1 °C 16.7 °C 1013.4 hPa Calm     92 % 0.0 mm 0.0 W/m2 CLR
01:20 18.0 °C 16.7 °C 1013.4 hPa Calm     92 % 0.0 mm 0.0 W/m2 CLR
01:25 18.0 °C 16.7 °C 1013.4 hPa Calm     92 % 0.0 mm 0.0 W/m2 CLR
01:30 18.0 °C 16.7 °C 1013.4 hPa Calm     92 % 0.0 mm 0.0 W/m2 CLR
01:35 18.0 °C 16.7 °C 1013.4 hPa Calm     92 % 0.0 mm 0.0 W/m2 CLR
01:40 18.1 °C 16.7 °C 1013.4 hPa Calm     92 % 0.0 mm 0.0 W/m2 CLR
01:45 18.1 °C 16.7 °C 1013.4 hPa Calm     92 % 0.0 mm 0.0 W/m2 CLR
01:50 18.0 °C 16.5 °C 1013.4 hPa Calm     91 % 0.0 mm 0.0 W/m2 CLR
01:55 18.1 °C 16.6 °C 1013.4 hPa Calm     91 % 0.0 mm 0.0 W/m2 CLR
02:00 18.3 °C 16.7 °C 1013.4 hPa Calm     90 % 0.0 mm 0.0 W/m2 CLR
02:05 18.7 °C 16.6 °C 1013.4 hPa West 7.4 km/h 7.4 km/h 88 % 0.0 mm 0.0 W/m2 CLR
02:10 18.9 °C 16.5 °C 1013.4 hPa WNW 9.3 km/h 9.3 km/h 86 % 0.0 mm 0.0 W/m2 CLR
02:15 19.0 °C 16.4 °C 1013.4 hPa West 9.3 km/h 9.3 km/h 85 % 0.0 mm 0.0 W/m2 CLR
02:20 19.1 °C 16.3 °C 1013.4 hPa West 6.4 km/h 6.4 km/h 84 % 0.0 mm 0.0 W/m2 CLR
02:25 19.1 °C 16.3 °C 1013.4 hPa West 8.0 km/h 8.0 km/h 84 % 0.0 mm 0.0 W/m2 CLR
02:30 19.1 °C 16.3 °C 1013.4 hPa Calm     84 % 0.0 mm 0.0 W/m2 CLR
02:35 19.1 °C 16.3 °C 1013.4 hPa West 5.6 km/h 5.6 km/h 84 % 0.0 mm 0.0 W/m2 CLR
02:40 19.1 °C 16.1 °C 1013.8 hPa Calm     83 % 0.0 mm 0.0 W/m2 CLR
02:45 19.1 °C 16.2 °C 1013.4 hPa Calm     83 % 0.0 mm 0.0 W/m2 CLR
02:50 19.1 °C 16.1 °C 1013.8 hPa Calm     83 % 0.0 mm 0.0 W/m2 CLR
02:55 19.0 °C 16.2 °C 1013.4 hPa West 5.6 km/h 5.6 km/h 84 % 0.0 mm 0.0 W/m2 CLR
03:00 19.0 °C 16.2 °C 1013.4 hPa Calm     84 % 0.0 mm 0.0 W/m2 CLR
03:05 18.9 °C 16.1 °C 1013.4 hPa WNW 3.7 km/h   84 % 0.0 mm 0.0 W/m2 CLR
03:10 18.8 °C 16.1 °C 1013.8 hPa West 4.8 km/h   84 % 0.0 mm 0.0 W/m2 CLR
03:15 18.8 °C 16.1 °C 1013.8 hPa West 9.3 km/h 9.3 km/h 84 % 0.0 mm 0.0 W/m2 CLR
03:20 18.9 °C 16.1 °C 1013.8 hPa Calm     84 % 0.0 mm 0.0 W/m2 CLR
03:25 18.9 °C 16.2 °C 1013.8 hPa WSW 13.0 km/h 13.0 km/h 84 % 0.0 mm 0.0 W/m2 CLR
03:30 19.1 °C 16.3 °C 1013.8 hPa Calm     84 % 0.0 mm 0.0 W/m2 CLR
03:35 18.9 °C 16.1 °C 1013.8 hPa Calm     84 % 0.0 mm 0.0 W/m2 CLR
03:40 18.7 °C 15.9 °C 1013.8 hPa Calm     84 % 0.0 mm 0.0 W/m2 CLR
03:45 18.7 °C 16.1 °C 1013.8 hPa West 11.1 km/h 11.1 km/h 85 % 0.0 mm 0.0 W/m2 CLR
03:50 18.7 °C 16.2 °C 1013.4 hPa WSW 7.4 km/h 7.4 km/h 85 % 0.0 mm 0.0 W/m2 CLR
03:55 18.7 °C 16.1 °C 1013.4 hPa WSW 7.4 km/h 7.4 km/h 85 % 0.0 mm 0.0 W/m2 CLR
03:58 18.6 °C 16.0 °C 1013.4 hPa SW 9.3 km/h 9.3 km/h 85 % 0.0 mm 0.0 W/m2 CLR
04:03 18.4 °C 15.9 °C 1013.4 hPa WSW 11.1 km/h 11.1 km/h 85 % 0.0 mm 0.0 W/m2 CLR
04:08 18.4 °C 15.8 °C 1013.4 hPa WSW 6.4 km/h 6.4 km/h 85 % 0.0 mm 0.0 W/m2 CLR
04:13 18.4 °C 15.9 °C 1013.4 hPa West 9.3 km/h 9.3 km/h 85 % 0.0 mm 0.0 W/m2 CLR
04:18 18.5 °C 15.9 °C 1013.4 hPa WNW 18.5 km/h 18.5 km/h 85 % 0.0 mm 0.0 W/m2 CLR
04:23 18.7 °C 15.9 °C 1013.4 hPa West 11.1 km/h 11.1 km/h 84 % 0.0 mm 0.0 W/m2 CLR
04:28 18.8 °C 16.1 °C 1013.4 hPa West 13.0 km/h 13.0 km/h 84 % 0.0 mm 0.0 W/m2 CLR
04:33 18.8 °C 15.9 °C 1013.4 hPa WNW 11.1 km/h 11.1 km/h 83 % 0.0 mm 0.0 W/m2 CLR
04:38 18.8 °C 15.9 °C 1013.4 hPa West 9.3 km/h 9.3 km/h 83 % 0.0 mm 0.0 W/m2 CLR
04:43 18.8 °C 16.0 °C 1013.4 hPa SW 11.1 km/h 11.1 km/h 84 % 0.0 mm 0.0 W/m2 CLR
04:48 18.6 °C 15.8 °C 1013.1 hPa WSW 16.7 km/h 16.7 km/h 84 % 0.0 mm 0.0 W/m2 CLR
04:53 18.3 °C 15.8 °C 1013.1 hPa WSW 9.7 km/h 9.7 km/h 85 % 0.0 mm 0.0 W/m2 CLR
04:58 18.2 °C 15.8 °C 1013.4 hPa WSW 5.6 km/h 5.6 km/h 86 % 0.0 mm 0.0 W/m2 CLR
05:03 18.3 °C 15.9 °C 1013.1 hPa West 6.4 km/h 6.4 km/h 86 % 0.0 mm 0.0 W/m2 CLR
05:08 18.3 °C 15.8 °C 1013.4 hPa WNW 13.0 km/h 13.0 km/h 85 % 0.0 mm 0.0 W/m2 CLR
05:13 18.5 °C 15.9 °C 1013.4 hPa West 7.4 km/h 7.4 km/h 85 % 0.0 mm 0.0 W/m2 CLR
05:18 18.5 °C 15.7 °C 1013.4 hPa WSW 5.6 km/h 5.6 km/h 84 % 0.0 mm 0.0 W/m2 CLR
05:23 18.4 °C 15.7 °C 1013.4 hPa Calm     84 % 0.0 mm 0.0 W/m2 CLR
05:28 18.4 °C 15.6 °C 1013.4 hPa Calm     84 % 0.0 mm 0.0 W/m2 CLR
05:33 18.3 °C 15.7 °C 1013.1 hPa Calm     85 % 0.0 mm 0.0 W/m2 CLR
05:38 18.2 °C 15.7 °C 1013.4 hPa Calm     85 % 0.0 mm 0.0 W/m2 CLR
05:43 18.1 °C 15.7 °C 1013.4 hPa Calm     86 % 0.0 mm 0.0 W/m2 CLR
05:48 17.9 °C 15.5 °C 1013.4 hPa Calm     86 % 0.0 mm 0.0 W/m2 CLR
05:53 17.8 °C 15.4 °C 1013.4 hPa Calm     86 % 0.0 mm 0.0 W/m2 CLR
05:58 17.8 °C 15.6 °C 1013.4 hPa Calm     87 % 0.0 mm 0.0 W/m2 CLR
06:03 17.7 °C 15.5 °C 1013.4 hPa SW 3.7 km/h 3.7 km/h 87 % 0.0 mm 0.0 W/m2 CLR
06:08 17.7 °C 15.5 °C 1013.4 hPa SW 5.6 km/h 5.6 km/h 87 % 0.0 mm 0.0 W/m2 CLR
06:13 17.6 °C 15.4 °C 1013.4 hPa Calm     87 % 0.0 mm 0.0 W/m2 CLR
06:18 17.5 °C 15.3 °C 1013.4 hPa Calm     87 % 0.0 mm 0.0 W/m2 CLR
06:23 17.5 °C 15.5 °C 1013.4 hPa Calm     88 % 0.0 mm 0.0 W/m2 CLR
06:28 17.6 °C 15.4 °C 1013.4 hPa Calm     87 % 0.0 mm 0.0 W/m2 OVC
06:33 17.6 °C 15.4 °C 1013.8 hPa Calm     87 % 0.0 mm 0.0 W/m2 OVC
06:38 17.7 °C 15.7 °C 1013.4 hPa West 7.4 km/h 7.4 km/h 88 % 0.0 mm 5.0 W/m2 OVC
06:43 18.1 °C 15.7 °C 1013.8 hPa West 5.6 km/h 5.6 km/h 86 % 0.0 mm 7.0 W/m2 BKN
06:48 18.4 °C 15.8 °C 1013.4 hPa Calm     85 % 0.0 mm 11.0 W/m2 BKN
06:53 18.6 °C 15.8 °C 1013.8 hPa Calm     84 % 0.0 mm 14.0 W/m2 BKN
06:58 18.5 °C 15.7 °C 1013.8 hPa Calm     84 % 0.0 mm 18.0 W/m2 BKN
07:03 18.1 °C 15.6 °C 1013.8 hPa Calm     85 % 0.0 mm 19.0 W/m2 BKN
07:08 17.9 °C 15.5 °C 1013.8 hPa Calm     86 % 0.0 mm 23.0 W/m2 BKN
07:13 17.8 °C 15.4 °C 1013.8 hPa Calm     86 % 0.0 mm 30.0 W/m2 BKN
07:18 17.8 °C 15.4 °C 1013.8 hPa Calm     86 % 0.0 mm 40.0 W/m2 BKN
07:23 17.8 °C 15.7 °C 1013.8 hPa Calm     87 % 0.0 mm 49.0 W/m2 SCT
07:28 17.9 °C 15.7 °C 1013.8 hPa Calm     87 % 0.0 mm 58.0 W/m2 SCT
07:33 18.1 °C 15.9 °C 1013.8 hPa Calm     87 % 0.0 mm 70.0 W/m2 FEW
07:38 18.2 °C 15.9 °C 1013.8 hPa Calm     87 % 0.0 mm 83.0 W/m2 FEW
07:43 18.3 °C 16.1 °C 1013.8 hPa Calm     87 % 0.0 mm 93.0 W/m2 FEW
07:48 18.4 °C 16.2 °C 1013.8 hPa Calm     87 % 0.0 mm 109.0 W/m2 CLR
07:53 18.7 °C 16.4 °C 1013.8 hPa Calm     87 % 0.0 mm 120.0 W/m2 CLR
07:58 18.9 °C 16.5 °C 1013.8 hPa NNW 6.4 km/h 6.4 km/h 86 % 0.0 mm 139.0 W/m2 CLR
08:03 19.2 °C 16.6 °C 1013.8 hPa WNW 6.4 km/h 6.4 km/h 85 % 0.0 mm 149.0 W/m2 CLR
08:08 19.5 °C 16.6 °C 1013.8 hPa WNW 7.4 km/h 7.4 km/h 83 % 0.0 mm 158.0 W/m2 CLR
08:13 19.7 °C 16.8 °C 1013.8 hPa Calm     83 % 0.0 mm 181.0 W/m2 CLR
08:18 19.9 °C 16.8 °C 1013.8 hPa Calm     82 % 0.0 mm 204.0 W/m2 CLR
08:23 20.2 °C 16.8 °C 1013.8 hPa Calm     81 % 0.0 mm 220.0 W/m2 CLR
08:24 20.3 °C 16.9 °C 1013.8 hPa Calm     81 % 0.0 mm 220.0 W/m2 CLR
08:29 20.4 °C 16.7 °C 1013.8 hPa West 13.0 km/h 13.0 km/h 79 % 0.0 mm 232.0 W/m2 CLR
08:34 20.6 °C 16.8 °C 1013.8 hPa NW 9.3 km/h 9.3 km/h 79 % 0.0 mm 248.0 W/m2 CLR
08:35 20.6 °C 16.8 °C 1013.8 hPa WNW 11.1 km/h 11.1 km/h 79 % 0.0 mm 255.0 W/m2 CLR
08:39 20.7 °C 16.5 °C 1013.8 hPa WNW 11.1 km/h 11.1 km/h 77 % 0.0 mm 267.0 W/m2 CLR
08:44 20.8 °C 16.8 °C 1013.8 hPa NW 9.7 km/h 9.7 km/h 78 % 0.0 mm 283.0 W/m2 CLR
08:49 20.9 °C 16.7 °C 1013.8 hPa NW 5.6 km/h   77 % 0.0 mm 301.0 W/m2 CLR
08:54 21.1 °C 16.7 °C 1013.8 hPa Calm     76 % 0.0 mm 315.0 W/m2 CLR
08:59 21.2 °C 16.6 °C 1013.8 hPa WNW 16.7 km/h 16.7 km/h 75 % 0.0 mm 330.0 W/m2 CLR
09:04 21.3 °C 16.9 °C 1013.8 hPa NW 11.1 km/h 11.1 km/h 76 % 0.0 mm 345.0 W/m2 CLR
09:09 21.4 °C 16.6 °C 1013.8 hPa NW 9.3 km/h 9.3 km/h 74 % 0.0 mm 362.0 W/m2 CLR
09:14 21.6 °C 17.0 °C 1013.8 hPa NNW 6.4 km/h 6.4 km/h 75 % 0.0 mm 376.0 W/m2 CLR
09:19 21.7 °C 16.9 °C 1013.8 hPa NW 3.2 km/h 3.2 km/h 74 % 0.0 mm 390.0 W/m2 CLR
09:24 21.9 °C 16.8 °C 1013.8 hPa NW 16.1 km/h 16.1 km/h 73 % 0.0 mm 406.0 W/m2 CLR
09:29 21.9 °C 16.7 °C 1013.8 hPa NW 20.4 km/h 20.4 km/h 72 % 0.0 mm 418.0 W/m2 CLR
09:34 22.1 °C 16.8 °C 1013.8 hPa NW 11.3 km/h 11.3 km/h 72 % 0.0 mm 434.0 W/m2 CLR
09:39 22.3 °C 17.2 °C 1013.8 hPa NW 11.1 km/h 11.1 km/h 73 % 0.0 mm 452.0 W/m2 CLR
09:44 22.4 °C 16.7 °C 1013.8 hPa NW 11.1 km/h 11.1 km/h 70 % 0.0 mm 468.0 W/m2 CLR
09:49 22.6 °C 16.8 °C 1013.8 hPa North 14.8 km/h 14.8 km/h 70 % 0.0 mm 482.0 W/m2 CLR
09:54 22.7 °C 16.9 °C 1013.8 hPa NW 13.0 km/h 13.0 km/h 70 % 0.0 mm 504.0 W/m2 CLR
09:59 22.7 °C 16.9 °C 1013.8 hPa NW 18.5 km/h 18.5 km/h 70 % 0.0 mm 515.0 W/m2 CLR
10:04 22.7 °C 16.4 °C 1013.8 hPa NW 14.5 km/h 14.5 km/h 68 % 0.0 mm 297.0 W/m2 CLR
10:09 22.8 °C 17.0 °C 1013.8 hPa NNW 11.1 km/h 11.1 km/h 70 % 0.0 mm 545.0 W/m2 CLR
10:14 22.8 °C 16.6 °C 1013.8 hPa NW 18.5 km/h 18.5 km/h 68 % 0.0 mm 559.0 W/m2 CLR
10:19 23.0 °C 16.8 °C 1013.8 hPa NW 14.8 km/h 14.8 km/h 68 % 0.0 mm 598.0 W/m2 CLR
10:24 23.1 °C 16.9 °C 1013.8 hPa West 14.8 km/h 14.8 km/h 68 % 0.0 mm 613.0 W/m2 CLR
10:29 23.4 °C 17.4 °C 1013.8 hPa NW 13.0 km/h 13.0 km/h 69 % 0.0 mm 598.0 W/m2 CLR
10:34 23.4 °C 17.4 °C 1013.8 hPa NNW 29.6 km/h 29.6 km/h 69 % 0.0 mm 605.0 W/m2 CLR
10:39 23.4 °C 17.2 °C 1013.8 hPa NNW 14.8 km/h 14.8 km/h 68 % 0.0 mm 628.0 W/m2 CLR
10:44 23.5 °C 17.0 °C 1013.8 hPa WNW 12.9 km/h 12.9 km/h 67 % 0.0 mm 636.0 W/m2 CLR
10:49 23.6 °C 16.9 °C 1013.8 hPa NW 25.9 km/h 25.9 km/h 66 % 0.0 mm 654.0 W/m2 CLR
10:54 23.7 °C 16.7 °C 1013.8 hPa WNW 14.5 km/h 14.5 km/h 65 % 0.0 mm 598.0 W/m2 CLR
10:59 23.8 °C 16.8 °C 1013.8 hPa WNW 18.5 km/h 18.5 km/h 65 % 0.0 mm 715.0 W/m2 CLR
11:04 23.8 °C 17.1 °C 1013.8 hPa NNW 11.1 km/h 11.1 km/h 66 % 0.0 mm 721.0 W/m2 CLR
11:10 24.1 °C 17.3 °C 1013.8 hPa NNW 16.1 km/h 16.1 km/h 66 % 0.0 mm 766.0 W/m2 CLR
11:14 24.1 °C 17.3 °C 1013.8 hPa NNW 17.7 km/h 17.7 km/h 66 % 0.0 mm 450.0 W/m2 CLR
11:20 24.2 °C 17.4 °C 1013.8 hPa NNW 18.5 km/h 18.5 km/h 66 % 0.0 mm 795.0 W/m2 CLR
11:25 24.2 °C 17.0 °C 1013.8 hPa NNW 16.7 km/h 16.7 km/h 64 % 0.0 mm 863.0 W/m2 CLR
11:30 24.4 °C 17.4 °C 1013.8 hPa NNW 16.7 km/h 16.7 km/h 65 % 0.0 mm 904.0 W/m2 CLR
11:35 24.2 °C 17.0 °C 1013.8 hPa NW 11.1 km/h 11.1 km/h 64 % 0.0 mm 826.0 W/m2 CLR
11:40 24.3 °C 17.8 °C 1013.8 hPa NNW 13.0 km/h 13.0 km/h 67 % 0.0 mm 796.0 W/m2 CLR
11:45 24.5 °C 17.2 °C 1013.8 hPa NNW 16.7 km/h 16.7 km/h 64 % 0.0 mm 847.0 W/m2 CLR
11:50 24.6 °C 17.3 °C 1013.8 hPa NW 18.5 km/h 18.5 km/h 64 % 0.0 mm 953.0 W/m2 CLR
11:55 24.5 °C 17.5 °C 1014.1 hPa Calm     65 % 0.0 mm 264.0 W/m2 CLR
11:56 24.6 °C 17.3 °C 1014.1 hPa Calm     64 % 0.0 mm 243.0 W/m2 CLR
12:01 24.4 °C 17.4 °C 1014.1 hPa NNW 19.3 km/h 19.3 km/h 65 % 0.0 mm 221.0 W/m2 CLR
12:06 24.1 °C 16.9 °C 1014.1 hPa NNW 9.3 km/h 9.3 km/h 64 % 0.0 mm 236.0 W/m2 CLR
12:11 24.2 °C 16.9 °C 1014.1 hPa NW 18.5 km/h 18.5 km/h 64 % 0.0 mm 197.0 W/m2 CLR
12:16 24.6 °C 17.6 °C 1013.8 hPa WNW 14.8 km/h 14.8 km/h 65 % 0.0 mm 914.0 W/m2 CLR
12:21 25.1 °C 17.5 °C 1013.8 hPa NW 18.5 km/h 18.5 km/h 63 % 0.0 mm 902.0 W/m2 CLR
12:26 25.3 °C 17.5 °C 1013.8 hPa NW 14.8 km/h 14.8 km/h 62 % 0.0 mm 879.0 W/m2 CLR
12:31 25.3 °C 17.5 °C 1013.8 hPa WNW 16.1 km/h 16.1 km/h 62 % 0.0 mm 875.0 W/m2 CLR
12:36 25.3 °C 17.8 °C 1013.8 hPa NNW 24.1 km/h 24.1 km/h 63 % 0.0 mm 972.0 W/m2 CLR
12:41 25.3 °C 17.5 °C 1013.8 hPa Calm     62 % 0.0 mm 942.0 W/m2 CLR
12:46 25.4 °C 17.4 °C 1013.8 hPa NW 7.4 km/h 7.4 km/h 61 % 0.0 mm 928.0 W/m2 CLR
12:51 25.5 °C 17.4 °C 1013.8 hPa NW 16.1 km/h 16.1 km/h 61 % 0.0 mm 937.0 W/m2 CLR
12:56 25.7 °C 17.6 °C 1013.8 hPa NW 20.9 km/h 20.9 km/h 61 % 0.0 mm 969.0 W/m2 CLR
13:01 26.1 °C 16.9 °C 1013.4 hPa West 18.5 km/h 18.5 km/h 57 % 0.0 mm 944.0 W/m2 CLR
13:06 26.1 °C 16.7 °C 1013.4 hPa WNW 16.7 km/h 16.7 km/h 56 % 0.0 mm 940.0 W/m2 CLR
13:11 26.3 °C 17.6 °C 1013.4 hPa NNW 18.5 km/h 18.5 km/h 59 % 0.0 mm 963.0 W/m2 CLR
13:16 26.3 °C 17.1 °C 1013.4 hPa Calm     57 % 0.0 mm 962.0 W/m2 CLR
13:21 26.6 °C 17.1 °C 1013.4 hPa WNW 25.9 km/h 25.9 km/h 56 % 0.0 mm 981.0 W/m2 CLR
13:26 26.3 °C 16.3 °C 1013.4 hPa WNW 13.0 km/h 13.0 km/h 54 % 0.0 mm 279.0 W/m2 CLR
13:31 26.3 °C 16.8 °C 1013.4 hPa West 24.1 km/h 24.1 km/h 56 % 0.0 mm 986.0 W/m2 CLR
13:36 26.7 °C 16.9 °C 1013.4 hPa NW 20.9 km/h 20.9 km/h 55 % 0.0 mm 986.0 W/m2 CLR
13:41 26.8 °C 16.7 °C 1013.1 hPa NW 18.5 km/h 18.5 km/h 54 % 0.0 mm 262.0 W/m2 CLR
13:46 26.8 °C 17.1 °C 1013.1 hPa NW 11.1 km/h 11.1 km/h 55 % 0.0 mm 1099.0 W/m2 CLR
13:51 26.8 °C 17.0 °C 1013.1 hPa NW 22.2 km/h 22.2 km/h 55 % 0.0 mm 1088.0 W/m2 CLR
13:56 26.8 °C 17.0 °C 1013.1 hPa NNE 14.8 km/h 14.8 km/h 55 % 0.0 mm 1088.0 W/m2 CLR
14:01 26.7 °C 16.7 °C 1013.1 hPa NW 3.7 km/h 3.7 km/h 54 % 0.0 mm 193.0 W/m2 CLR
14:06 26.9 °C 17.7 °C 1013.1 hPa NW 20.9 km/h 20.9 km/h 57 % 0.0 mm 1004.0 W/m2 CLR
14:11 26.9 °C 17.1 °C 1013.1 hPa NW 17.7 km/h 17.7 km/h 55 % 0.0 mm 1065.0 W/m2 CLR
14:16 27.3 °C 16.8 °C 1013.1 hPa NW 20.4 km/h 20.4 km/h 53 % 0.0 mm 1016.0 W/m2 CLR
14:21 27.7 °C 17.2 °C 1013.1 hPa North 19.3 km/h 19.3 km/h 53 % 0.0 mm 984.0 W/m2 CLR
14:26 27.8 °C 17.4 °C 1012.8 hPa North 18.5 km/h 18.5 km/h 53 % 0.0 mm 990.0 W/m2 CLR
14:31 27.8 °C 17.4 °C 1012.8 hPa NNW 16.7 km/h 16.7 km/h 53 % 0.0 mm 1002.0 W/m2 CLR
14:36 27.8 °C 17.1 °C 1012.8 hPa NNW 16.7 km/h 16.7 km/h 52 % 0.0 mm 951.0 W/m2 CLR
14:41 27.7 °C 16.7 °C 1012.8 hPa West 22.2 km/h 22.2 km/h 51 % 0.0 mm 946.0 W/m2 CLR
14:46 27.9 °C 17.4 °C 1012.8 hPa NW 20.4 km/h 20.4 km/h 53 % 0.0 mm 965.0 W/m2 CLR
14:51 28.3 °C 16.9 °C 1012.8 hPa NW 18.5 km/h 18.5 km/h 50 % 0.0 mm 937.0 W/m2 CLR
14:56 28.4 °C 17.3 °C 1012.8 hPa NW 18.5 km/h 18.5 km/h 51 % 0.0 mm 921.0 W/m2 CLR
15:02 28.4 °C 16.3 °C 1012.4 hPa NW 24.1 km/h 24.1 km/h 48 % 0.0 mm 926.0 W/m2 CLR
15:07 28.6 °C 16.5 °C 1012.4 hPa NNW 33.3 km/h 33.3 km/h 48 % 0.0 mm 969.0 W/m2 CLR
15:12 28.6 °C 16.2 °C 1012.4 hPa NNW 24.1 km/h 24.1 km/h 47 % 0.0 mm 1000.0 W/m2 CLR
15:17 28.4 °C 17.0 °C 1012.4 hPa North 22.2 km/h 22.2 km/h 50 % 0.0 mm 960.0 W/m2 CLR
15:22 28.4 °C 17.0 °C 1012.4 hPa NW 18.5 km/h 18.5 km/h 50 % 0.0 mm 939.0 W/m2 CLR
15:27 28.9 °C 17.1 °C 1012.4 hPa NW 14.8 km/h 14.8 km/h 49 % 0.0 mm 967.0 W/m2 CLR
15:32 29.0 °C 16.9 °C 1012.4 hPa WNW 20.4 km/h 20.4 km/h 48 % 0.0 mm 921.0 W/m2 CLR
15:37 28.9 °C 16.8 °C 1012.4 hPa NNW 14.8 km/h 14.8 km/h 48 % 0.0 mm 993.0 W/m2 CLR
15:42 28.9 °C 16.8 °C 1012.4 hPa NNW 24.1 km/h 24.1 km/h 48 % 0.0 mm 939.0 W/m2 CLR
15:47 29.2 °C 17.4 °C 1012.4 hPa NW 18.5 km/h 18.5 km/h 49 % 0.0 mm 930.0 W/m2 CLR
15:52 28.9 °C 17.5 °C 1012.4 hPa NNW 18.5 km/h 18.5 km/h 50 % 0.0 mm 190.0 W/m2 CLR
15:57 29.2 °C 16.7 °C 1012.4 hPa NNW 20.4 km/h 20.4 km/h 47 % 0.0 mm 863.0 W/m2 CLR
16:02 29.3 °C 16.8 °C 1012.4 hPa NNE 18.5 km/h 18.5 km/h 47 % 0.0 mm 830.0 W/m2 CLR
16:07 29.3 °C 17.5 °C 1012.4 hPa WNW 6.4 km/h 6.4 km/h 49 % 0.0 mm 840.0 W/m2 CLR
16:12 29.6 °C 17.1 °C 1012.4 hPa NNW 9.3 km/h 9.3 km/h 47 % 0.0 mm 821.0 W/m2 CLR
16:17 29.7 °C 16.4 °C 1012.4 hPa WNW 18.5 km/h 18.5 km/h 45 % 0.0 mm 849.0 W/m2 CLR
16:22 29.9 °C 17.0 °C 1012.1 hPa NNW 16.1 km/h 16.1 km/h 46 % 0.0 mm 796.0 W/m2 CLR
16:27 30.0 °C 16.4 °C 1012.1 hPa NNW 22.2 km/h 22.2 km/h 44 % 0.0 mm 789.0 W/m2 CLR
16:32 29.8 °C 16.6 °C 1012.1 hPa WNW 11.1 km/h 11.1 km/h 45 % 0.0 mm 777.0 W/m2 CLR
16:37 29.8 °C 16.3 °C 1012.1 hPa North 14.8 km/h 14.8 km/h 44 % 0.0 mm 789.0 W/m2 CLR
16:42 29.9 °C 15.9 °C 1012.1 hPa North 13.0 km/h 13.0 km/h 43 % 0.0 mm 759.0 W/m2 CLR
16:47 29.9 °C 16.4 °C 1012.1 hPa North 9.3 km/h   44 % 0.0 mm 745.0 W/m2 CLR
16:52 30.2 °C 16.6 °C 1012.1 hPa WNW 22.2 km/h 22.2 km/h 44 % 0.0 mm 728.0 W/m2 CLR
16:57 30.0 °C 16.8 °C 1012.1 hPa NW 12.9 km/h 12.9 km/h 45 % 0.0 mm 719.0 W/m2 CLR
17:02 30.2 °C 15.8 °C 1012.1 hPa NW 20.4 km/h 20.4 km/h 42 % 0.0 mm 700.0 W/m2 CLR
17:07 30.2 °C 16.2 °C 1011.7 hPa North 25.9 km/h 25.9 km/h 43 % 0.0 mm 689.0 W/m2 CLR
17:12 30.1 °C 16.2 °C 1012.1 hPa NNE 18.5 km/h 18.5 km/h 43 % 0.0 mm 675.0 W/m2 CLR
17:17 30.1 °C 16.1 °C 1012.1 hPa Calm     43 % 0.0 mm 666.0 W/m2 CLR
17:22 30.2 °C 15.8 °C 1012.1 hPa Calm     42 % 0.0 mm 652.0 W/m2 CLR
17:27 30.4 °C 16.4 °C 1011.7 hPa NW 18.5 km/h 18.5 km/h 43 % 0.0 mm 642.0 W/m2 CLR
17:32 30.4 °C 15.7 °C 1011.7 hPa Calm     41 % 0.0 mm 626.0 W/m2 CLR
17:37 30.5 °C 15.8 °C 1011.7 hPa WSW 3.7 km/h 3.7 km/h 41 % 0.0 mm 612.0 W/m2 CLR
17:42 30.7 °C 15.9 °C 1011.7 hPa NW 5.6 km/h 5.6 km/h 41 % 0.0 mm 601.0 W/m2 CLR
17:47 30.8 °C 16.4 °C 1011.7 hPa NNW 9.3 km/h 9.3 km/h 42 % 0.0 mm 582.0 W/m2 CLR
17:52 30.7 °C 16.3 °C 1011.7 hPa NNE 9.3 km/h 9.3 km/h 42 % 0.0 mm 575.0 W/m2 CLR
17:57 30.8 °C 16.1 °C 1011.4 hPa NE 7.4 km/h 7.4 km/h 41 % 0.0 mm 559.0 W/m2 CLR
18:02 30.7 °C 15.9 °C 1011.4 hPa Calm     41 % 0.0 mm 545.0 W/m2 CLR
18:07 31.0 °C 15.8 °C 1011.4 hPa NNW 11.3 km/h 11.3 km/h 40 % 0.0 mm 531.0 W/m2 CLR
18:12 30.8 °C 15.7 °C 1011.4 hPa NNW 9.3 km/h 9.3 km/h 40 % 0.0 mm 512.0 W/m2 CLR
18:17 30.9 °C 16.1 °C 1011.4 hPa NW 11.1 km/h 11.1 km/h 41 % 0.0 mm 499.0 W/m2 CLR
18:22 31.0 °C 15.8 °C 1011.4 hPa NW 7.4 km/h 7.4 km/h 40 % 0.0 mm 487.0 W/m2 CLR
18:27 31.2 °C 16.0 °C 1011.1 hPa North 11.3 km/h 11.3 km/h 40 % 0.0 mm 471.0 W/m2 CLR
18:32 31.1 °C 15.9 °C 1011.1 hPa Calm     40 % 0.0 mm 454.0 W/m2 CLR
18:37 31.2 °C 15.2 °C 1011.1 hPa NNW 5.6 km/h 5.6 km/h 38 % 0.0 mm 441.0 W/m2 CLR
18:42 31.2 °C 15.6 °C 1011.1 hPa NW 11.1 km/h 11.1 km/h 39 % 0.0 mm 425.0 W/m2 CLR
18:47 31.2 °C 15.2 °C 1011.1 hPa North 9.3 km/h 9.3 km/h 38 % 0.0 mm 410.0 W/m2 CLR
18:52 31.2 °C 15.2 °C 1011.1 hPa Calm     38 % 0.0 mm 396.0 W/m2 CLR
18:57 31.2 °C 15.2 °C 1011.1 hPa North 11.1 km/h 11.1 km/h 38 % 0.0 mm 378.0 W/m2 CLR
19:02 31.2 °C 14.8 °C 1011.1 hPa NNW 11.1 km/h 11.1 km/h 37 % 0.0 mm 366.0 W/m2 CLR
19:07 31.2 °C 14.8 °C 1011.1 hPa North 8.0 km/h 8.0 km/h 37 % 0.0 mm 352.0 W/m2 CLR
19:12 31.1 °C 15.1 °C 1011.1 hPa North 1.9 km/h 1.9 km/h 38 % 0.0 mm 334.0 W/m2 CLR
19:17 31.2 °C 15.2 °C 1011.1 hPa NNE 1.9 km/h 1.9 km/h 38 % 0.0 mm 316.0 W/m2 CLR
19:22 31.3 °C 14.8 °C 1011.1 hPa North 5.6 km/h 5.6 km/h 37 % 0.0 mm 302.0 W/m2 CLR
19:27 31.3 °C 14.5 °C 1011.1 hPa NNW 9.3 km/h 9.3 km/h 36 % 0.0 mm 288.0 W/m2 CLR
19:32 31.3 °C 14.8 °C 1011.1 hPa NNW 5.6 km/h 5.6 km/h 37 % 0.0 mm 271.0 W/m2 CLR
19:37 31.4 °C 14.5 °C 1011.1 hPa North 11.1 km/h 11.1 km/h 36 % 0.0 mm 255.0 W/m2 CLR
19:42 31.1 °C 14.7 °C 1011.1 hPa NNW 9.3 km/h 9.3 km/h 37 % 0.0 mm 239.0 W/m2 CLR
19:47 31.2 °C 14.3 °C 1011.1 hPa NNE 9.3 km/h 9.3 km/h 36 % 0.0 mm 223.0 W/m2 CLR
19:52 31.0 °C 14.2 °C 1011.1 hPa North 7.4 km/h 7.4 km/h 36 % 0.0 mm 206.0 W/m2 CLR
19:57 31.0 °C 14.2 °C 1011.1 hPa Calm     36 % 0.0 mm 190.0 W/m2 CLR
20:02 31.2 °C 14.3 °C 1010.7 hPa Calm     36 % 0.0 mm 174.0 W/m2 CLR
20:07 31.2 °C 14.4 °C 1010.7 hPa Calm     36 % 0.0 mm 158.0 W/m2 CLR
20:12 31.3 °C 14.9 °C 1011.1 hPa Calm     37 % 0.0 mm 142.0 W/m2 CLR
20:17 31.3 °C 14.8 °C 1010.7 hPa Calm     37 % 0.0 mm 125.0 W/m2 CLR
20:22 31.2 °C 14.8 °C 1010.7 hPa Calm     37 % 0.0 mm 111.0 W/m2 CLR
20:27 30.9 °C 14.5 °C 1010.7 hPa NNE 1.9 km/h   37 % 0.0 mm 97.0 W/m2 CLR
20:32 30.7 °C 15.2 °C 1010.7 hPa Calm     39 % 0.0 mm 84.0 W/m2 CLR
20:37 30.5 °C 14.6 °C 1010.7 hPa Calm     38 % 0.0 mm 70.0 W/m2 FEW
20:42 30.4 °C 14.5 °C 1010.7 hPa Calm     38 % 0.0 mm 60.0 W/m2 SCT
20:47 30.3 °C 14.8 °C 1010.7 hPa Calm     39 % 0.0 mm 51.0 W/m2 SCT
20:52 30.2 °C 14.7 °C 1010.7 hPa Calm     39 % 0.0 mm 35.0 W/m2 BKN
20:57 30.0 °C 14.6 °C 1010.7 hPa Calm     39 % 0.0 mm 28.0 W/m2 BKN
21:02 29.8 °C 14.8 °C 1010.7 hPa Calm     40 % 0.0 mm 26.0 W/m2 BKN
21:07 29.7 °C 14.6 °C 1010.7 hPa Calm     40 % 0.0 mm 21.0 W/m2 BKN
21:12 29.4 °C 14.8 °C 1010.7 hPa Calm     41 % 0.0 mm 18.0 W/m2 BKN
21:17 29.1 °C 15.6 °C 1010.7 hPa Calm     44 % 0.0 mm 14.0 W/m2 BKN
21:22 28.7 °C 15.6 °C 1011.1 hPa Calm     45 % 0.0 mm 11.0 W/m2 BKN
21:27 28.4 °C 15.7 °C 1010.7 hPa Calm     46 % 0.0 mm 7.0 W/m2 BKN
21:32 28.1 °C 15.4 °C 1011.1 hPa Calm     46 % 0.0 mm 5.0 W/m2 OVC
21:38 27.9 °C 15.2 °C 1011.1 hPa Calm     46 % 0.0 mm 0.0 W/m2 OVC
21:43 27.8 °C 15.8 °C 1011.1 hPa Calm     48 % 0.0 mm 0.0 W/m2 OVC
21:47 27.7 °C 15.7 °C 1011.1 hPa Calm     48 % 0.0 mm 0.0 W/m2 CLR
21:53 27.4 °C 16.1 °C 1011.1 hPa Calm     50 % 0.0 mm 0.0 W/m2 CLR
21:58 26.9 °C 15.3 °C 1011.1 hPa Calm     49 % 0.0 mm 0.0 W/m2 CLR
22:03 26.7 °C 16.7 °C 1011.1 hPa Calm     54 % 0.0 mm 0.0 W/m2 CLR
22:08 26.5 °C 17.0 °C 1011.4 hPa Calm     56 % 0.0 mm 0.0 W/m2 CLR
22:13 26.1 °C 15.4 °C 1011.4 hPa Calm     52 % 0.0 mm 0.0 W/m2 CLR
22:18 26.1 °C 15.4 °C 1011.4 hPa Calm     52 % 0.0 mm 0.0 W/m2 CLR
22:23 26.1 °C 16.3 °C 1011.4 hPa Calm     55 % 0.0 mm 0.0 W/m2 CLR
22:28 25.8 °C 16.9 °C 1011.4 hPa Calm     58 % 0.0 mm 0.0 W/m2 CLR
22:33 25.6 °C 16.2 °C 1011.4 hPa Calm     56 % 0.0 mm 0.0 W/m2 CLR
22:38 25.5 °C 16.3 °C 1011.7 hPa Calm     57 % 0.0 mm 0.0 W/m2 CLR
22:43 25.4 °C 16.0 °C 1011.7 hPa Calm     56 % 0.0 mm 0.0 W/m2 CLR
22:48 25.2 °C 16.4 °C 1011.7 hPa Calm     58 % 0.0 mm 0.0 W/m2 CLR
22:53 25.1 °C 15.9 °C 1011.7 hPa Calm     57 % 0.0 mm 0.0 W/m2 CLR
22:58 24.9 °C 15.8 °C 1011.7 hPa Calm     57 % 0.0 mm 0.0 W/m2 CLR
23:03 25.0 °C 15.9 °C 1011.7 hPa Calm     57 % 0.0 mm 0.0 W/m2 CLR
23:08 25.0 °C 16.2 °C 1011.7 hPa Calm     58 % 0.0 mm 0.0 W/m2 CLR
23:13 24.8 °C 16.3 °C 1011.7 hPa Calm     59 % 0.0 mm 0.0 W/m2 CLR
23:18 24.6 °C 16.1 °C 1011.7 hPa Calm     59 % 0.0 mm 0.0 W/m2 CLR
23:23 24.5 °C 15.9 °C 1011.7 hPa Calm     59 % 0.0 mm 0.0 W/m2 CLR
23:28 24.4 °C 15.9 °C 1011.7 hPa Calm     59 % 0.0 mm 0.0 W/m2 CLR
23:33 24.4 °C 16.9 °C 1011.7 hPa Calm     63 % 0.0 mm 0.0 W/m2 CLR
23:38 24.2 °C 16.4 °C 1011.7 hPa Calm     62 % 0.0 mm 0.0 W/m2 CLR
23:43 24.0 °C 16.0 °C 1011.7 hPa Calm     61 % 0.0 mm 0.0 W/m2 CLR
23:48 24.1 °C 16.6 °C 1012.1 hPa Calm     63 % 0.0 mm 0.0 W/m2 CLR
23:53 24.1 °C 16.1 °C 1011.7 hPa Calm     61 % 0.0 mm 0.0 W/m2 CLR
23:58 24.2 °C 15.9 °C 1011.7 hPa Calm     60 % 0.0 mm 0.0 W/m2 CLR
Lo Temps de Massalio
Compliments of Weather Underground - 1.25 mb